sat.trackr.live / text

‹ back to catalog

STARLINK-35361

NORAD 65667 · 2025-211R

PAYLOAD ACTIVE UNKNOWN

§ Identity

Operator
Country
US
Launch date
2025-09-19
Launch site
AFWTR
Launch vehicle
Mass (kg)
RCS (m²)

Purposes: comms

External: N2YO · Heavens-Above · Gunter

§ Orbital elements

Epoch: 2026-09-20T22:13:50.610144Z

Period
93.91 min
Inclination
97.2839°
Eccentricity
0.0001844
Mean motion
15.33453805 rev/d
Perigee alt
464.3 km
Apogee alt
466.8 km
Semi-major
6,843.7 km
B*
3.3058e-4
RAAN
304.0773°
Arg perigee
59.9980°
Mean anomaly
300.1446°
Rev number
5,658

§ Raw data

STARLINK-353611 65667U 25211R   26263.92628021  .00010615  00000+0  33058-3 0  99942 65667  97.2839 304.0773 0001844  59.9980 300.1446 15.33453805 56580

JSON: /api/v1/satellites/65667 · /tle

For live sub-satellite position, see the globe view (requires WebGL).

§ Visibility from observer

Set your observer location to see the next 7 days of passes ≥ 10°. The values pass through the URL so the page stays shareable.

No JS? Fill the form by hand. The geolocation button needs JavaScript.